Location: Unspecified
(44.0704°N, 88.6889°W)
Time: 23:47:28
(UTC+01:00)

CZ-3 Stage 3 - Pass Details

Date: 16 November 2019
Orbit: 406 x 34784 km, 30.5° (Epoch: 05 December)

Event Time Altitude Azimuth Distance (km) Brightness Sun altitude
Rises 03:05:35 0° 146° (SE) 40,597 10.9 -38.9°
Reaches altitude 10° 06:08:03 10° 152° (SSE) 26,583 10.0 -63.8°
Maximum altitude 06:42:08 11° 147° (SSE) 20,782 9.5 -64.6°
Drops below altitude 10° 07:03:12 10° 139° (SE) 16,487 9.0 -64.1°
Sets 07:30:31 0° 113° (ESE) 10,505 8.3 -62.4°
